Regional Weather Roundup
Issued by NWS

Home | Current Version | Previous Version | Text Only | Print | Product List | Glossary Off
Versions: 1 2 3 4 5 6 7 8 9 10 11 12 13 14 15 16 17 18 19 20 21 22 23 24 25 26 27 28 29 30 31 32 33 34 35 36 37 38 39 40 41 42 43 44 45 46 47 48 49 50

000
ASUS43 KLOT 220304
RWRIL

ILLINOIS REGIONAL WEATHER ROUNDUP
NATIONAL WEATHER SERVICE CHICAGO/ROMEOVILLE IL
1000 PM CDT SAT OCT 21 2017

NOTE: "FAIR" INDICATES FEW OR NO CLOUDS BELOW 12,000 FEET WITH NO
SIGNIFICANT WEATHER AND/OR OBSTRUCTIONS TO VISIBILITY.

* THESE STATIONS ARE NOT UNDER NWS QUALITY CONTROL. THEY ALSO MAY NOT
  REPORT WEATHER SUCH AS PRECIPITATION OR FOG.

ILZ001-002-007-009-015-016-024-220400-
NORTHWEST ILLINOIS

CITY           SKY/WX    TMP DP  RH WIND       PRES   REMARKS
MOLINE         CLEAR     71  59  65 S12       29.88R
STERLING*      CLOUDY    71  59  65 S8G18       N/A
SAVANNA*       CLEAR     70  59  69 S16       29.89R
$$

ILZ003-004-008-010-011-017-018-220400-
NORTH CENTRAL ILLINOIS

CITY           SKY/WX    TMP DP  RH WIND       PRES   REMARKS
ROCKFORD       PTCLDY    69  58  67 S17       29.95S
FREEPORT*      PTCLDY    69  58  68 S15G21    29.94R
DE KALB*       CLEAR     67  58  73 S17       29.98S
PERU*          CLEAR     67  57  71 S15       29.97S
$$

ILZ005-006-012>014-019>023-220400-
NORTHEAST ILLINOIS

CITY           SKY/WX    TMP DP  RH WIND       PRES   REMARKS
CHICAGO-OHARE  PTCLDY    69  56  62 S16       29.99F
CHICAGO-MIDWAY PTCLDY    71  57  61 S15G24    30.01R
AURORA         PTCLDY    69  58  67 S15       29.99S
LANSING*       CLEAR     67  58  72 S14G22    30.02F
JOLIET*        CLEAR     69  58  69 S10G17    30.01R
WAUKEGAN       PTCLDY    70  58  65 S13G24    29.98S
DUPAGE AIRPORT PTCLDY    68  58  70 S16G24    29.98S
KANKAKEE*      CLEAR     67  55  66 S10G17    30.04S
WHEELING       CLEAR     71  59  65 S13       30.01S
MORRIS*        CLEAR     68  57  67 S10G18    29.98S
ROMEOVILLE*    CLEAR     67  57  70 S20G30    30.00S
NORTHERLY ISL    N/A     70  55  59 S10         N/A
$$

LMZ740>746-220400-
SOUTHERN LAKE MICHIGAN

STATION/POSITION SKY/WX   TEMP    WIND        PRES    VSBY  WAVE
                          AIR SEA DIR/SP/G                  HT/PER
                          (F)     (DEG/KT/KT) (MB)    (MI)  (FT/S)
SOUTHERN BUOY              65 61  150/ 16/ 17 1016.5          3/ 4
WILMETTE HARBOR            65 59  160/ 14/ 16   N/A           2/ 3
HARRISON CRIB              69     180/ 23/ 24   N/A
BURNHAM HARBOR             70     160/ 13/ 18   N/A
CALUMET HARBOR             70     160/ 12/ 17 1015.6S
BURNS HARBOR               69     170/ 12/ 20 1017.6S
MICHIGAN CITY              69     150/ 12/ 15   N/A
MICHIGAN CITY 6N           67 58  180/ 17/ 25   N/A           2/ 2
ST. JOSEPH                 65 59  180/ 14/ 17 1017.5F         2/ 3
$$

ILZ025>027-034>036-040-047-049-050-058-095>099-220400-
WEST-CENTRAL ILLINOIS

CITY           SKY/WX    TMP DP  RH WIND       PRES   REMARKS
QUINCY         LGT RAIN  73  61  65 S13       29.92R
MACOMB*        PTCLDY    69  60  72 S15       29.95R
JACKSONVILLE*  CLOUDY    71  57  61 SE14G20   29.97R
PITTSFIELD*    CLOUDY    72  62  71 SE8       29.96R
$$

ILZ028>032-037-038-041>044-048-051>054-059>061-220400-
CENTRAL ILLINOIS

CITY           SKY/WX    TMP DP  RH WIND       PRES   REMARKS
PONTIAC        CLEAR     67  60  77 S18       30.00S
BLOOMINGTON    CLEAR     67  57  70 S23G30    30.00F
DECATUR        CLEAR     67  56  67 S16       30.03S
PEORIA         MOCLDY    70  57  63 S22G33    29.95F
LACON*         PTCLDY    69  57  65 S17G23    29.95S
LINCOLN*       PTCLDY    69  58  68 S16       29.99S
SPRINGFIELD    CLOUDY    72  57  59 S16G28    29.99S
TAYLORVILLE    CLOUDY    69  56  62 SE13      30.02R
$$

ILZ033-039-045-046-055>057-062-063-220400-
EAST-CENTRAL ILLINOIS

CITY           SKY/WX    TMP DP  RH WIND       PRES   REMARKS
CHAMPAIGN      CLEAR     67  54  63 S16G26    30.05S
DANVILLE*      CLEAR     65  53  65 SE10      30.05S
RANTOUL*       CLEAR     66  57  73 S9        30.05S
MATTOON        CLEAR     67  55  65 S16G24    30.05F
PARIS*         CLEAR     62  54  73 SE12      30.10R
$$

ILZ079-100>102-220400-
SOUTHWEST ILLINOIS

CITY           SKY/WX    TMP DP  RH WIND       PRES   REMARKS
BELLEVILLE     CLEAR     70  59  66 S16       30.03R
CAHOKIA*       PTCLDY    74  59  59 S14G22    29.98R
SPARTA*        CLEAR     71  60  68 SE9       30.02S
$$

ILZ064>066-069>071-074>076-080>082-084>086-088>090-092>094-220400-
SOUTH-CENTRAL ILLINOIS

CITY           SKY/WX    TMP DP  RH WIND       PRES   REMARKS
CARBONDALE     PTCLDY    71  60  68 S17G23    30.04S
CAIRO*         CLEAR     69  62  77 SE8       30.07S
EFFINGHAM*     CLEAR     68  56  66 SE15      30.07R
MARION         PTCLDY    71  60  68 S10G17    30.07S
MT. VERNON     CLEAR     69  58  67 SE6       30.06
CENTRALIA*     CLEAR     71  59  66 SE14G22   30.03S
SALEM*         CLEAR     71  56  60 SE8       30.05S
METROPOLIS*    CLEAR     71  61  72 SE5       30.09S
$$

ILZ067-068-072-073-078-083-087-091-220400-
SOUTHEAST ILLINOIS

CITY           SKY/WX    TMP DP  RH WIND       PRES   REMARKS
LAWRENCEVILLE  CLEAR     65  54  67 SE10      30.11S
FLORA*         CLEAR     66  57  71 SE8       30.07S
FAIRFIELD*     CLEAR     69  56  64 SE6       30.07R
HARRISBURG*    CLEAR     67  59  74 S8        30.08S
ROBINSON*      CLEAR     64  54  69 SE7       30.11S
CARMI*         CLEAR     67  58  72 SE12      30.08S
$$

ABBREVIATIONS USED IN REMARKS
   TC - TEMPERATURE IN CELSIUS
  WCI - WIND CHILL INDEX
   HX - HEAT INDEX
  VSB - VISIBILITY
$$




USA.gov is the U.S. government's official web portal to all federal, state and local government web resources and services.